Location: La Trinit�
(48.1620°N, 3.4512°W)
Time: 01:53:43
(UTC+00:00)

Cosmos 2242 Rocket - Pass Details

Date: 08 May 2021
Orbit: 619 x 650 km, 82.5° (Epoch: 13 June)

Event Time Altitude Azimuth Distance (km) Brightness Sun altitude
Exits shadow 23:40:21 37° 84° (E) 974 4.5 -24.1°
Drops below altitude 10° 23:44:13 10° 24° (NNE) 2,017 7.0 -24.2°
Sets 23:46:35 0° 17° (NNE) 2,934 8.1 -24.3°
